Weather History for KOWD - May, 2014

Change the Weather History Date:

Saturday, May 3, 2014

  Actual Average Record
Temperature  
Mean Temperature 54 °F -  
Max Temperature 69 °F 64 °F 91 °F (2001)
Min Temperature 42 °F 41 °F 30 °F (2000)
Degree Days  
Heating Degree Days 11    
Growing Degree Days 4 (Base 50)    
Moisture  
Dew Point 40 °F    
Average Humidity 56    
Maximum Humidity 93    
Minimum Humidity 32    
Precipitation  
Precipitation 0.00 in - - ()
Sea Level Pressure  
Sea Level Pressure 29.79 in    
Wind  
Wind Speed 4 mph (SSW)    
Max Wind Speed 12 mph    
Max Gust Speed 20 mph    
Visibility 10 miles    
Events      
Averages and records for this station are not official NWS values.
T = Trace of Precipitation, MM = Missing Value Source: NWS Daily Summary

Daily Weather History Graph

Daily Weather History Graph

Search for Another Location

Airport or City:

Trip Planner

Search our weather history database for the weather conditions in past years. The results will help you decide how hot, cold, wet, or windy it might be!

Date:

Astronomy

May. 03, 2014 Rise Set
Actual Time 5:37 AM EDT 7:46 PM EDT
Civil Twilight 5:06 AM EDT 8:16 PM EDT
Nautical Twilight 4:29 AM EDT 8:54 PM EDT
Astronomical Twilight 3:47 AM EDT 9:36 PM EDT
Moon 9:03 AM EDT (5/3) 11:50 PM EDT (5/3)
Length of Visible Light 15h 10m
Length of Day
14h 08m
Waxing Crescent, 19% of the Moon is Illuminated
May 3
Waxing Crescent
May 6
First Quarter
May 14
Full
May 21
Last Quarter
May 28
New

Hourly Weather History & Observations

Time (EDT) Temp. Windchill Dew Point Humidity Pressure Visibility Wind Dir Wind Speed Gust Speed Precip Events Conditions
12:53 AM 51.1 °F - 45.0 °F 80% 29.82 in 10.0 mi Calm Calm - N/A   Overcast
1:53 AM 46.0 °F - 43.0 °F 89% 29.82 in 10.0 mi Calm Calm - N/A   Clear
2:53 AM 45.0 °F 43.5 °F 43.0 °F 93% 29.83 in 10.0 mi South 3.5 mph - N/A   Partly Cloudy
3:53 AM 42.1 °F - 39.0 °F 89% 29.83 in 10.0 mi Calm Calm - N/A   Clear
4:53 AM 42.1 °F - 39.9 °F 92% 29.84 in 10.0 mi Calm Calm - N/A   Overcast
6:53 AM 46.9 °F - 44.1 °F 90% 29.87 in 10.0 mi Calm Calm - N/A   Clear
7:53 AM 54.0 °F - 39.9 °F 59% 29.86 in 10.0 mi WSW 3.5 mph - N/A   Overcast
8:53 AM 59.0 °F - 41.0 °F 51% 29.86 in 10.0 mi WSW 4.6 mph - N/A   Overcast
9:53 AM 62.1 °F - 39.9 °F 44% 29.86 in 10.0 mi West 6.9 mph - N/A   Overcast
10:53 AM 64.9 °F - 39.9 °F 40% 29.83 in 10.0 mi SW 8.1 mph - N/A   Overcast
11:53 AM 64.0 °F - 39.0 °F 40% 29.81 in 10.0 mi Variable 6.9 mph - N/A   Mostly Cloudy
12:53 PM 64.9 °F - 37.0 °F 36% 29.78 in 10.0 mi WSW 9.2 mph 19.6 mph N/A   Overcast
1:53 PM 64.9 °F - 36.0 °F 34% 29.77 in 10.0 mi SW 5.8 mph - N/A   Overcast
2:53 PM 66.0 °F - 35.1 °F 32% 29.75 in 10.0 mi Variable 6.9 mph - N/A   Overcast
4:53 PM 66.0 °F - 37.9 °F 36% 29.72 in 10.0 mi SSE 9.2 mph - N/A   Overcast
5:53 PM 64.0 °F - 39.0 °F 40% 29.72 in 10.0 mi SSE 9.2 mph - N/A   Overcast
6:53 PM 64.0 °F - 39.0 °F 40% 29.72 in 10.0 mi South 11.5 mph - N/A   Overcast
7:53 PM 64.0 °F - 37.9 °F 38% 29.73 in 10.0 mi South 9.2 mph - N/A   Overcast
8:53 PM 60.1 °F - 39.0 °F 46% 29.75 in 10.0 mi South 5.8 mph - N/A   Overcast
9:53 PM 59.0 °F - 39.0 °F 48% 29.75 in 10.0 mi South 6.9 mph - N/A   Scattered Clouds
10:53 PM 57.0 °F - 39.9 °F 53% 29.75 in 10.0 mi South 3.5 mph - N/A   Overcast
11:53 PM 57.0 °F - 42.1 °F 57% 29.73 in 10.0 mi SSW 4.6 mph - N/A   Overcast